Location: Newark
(39.0083°N, 20.7336°E)
Time: 11:37:52
(UTC+00:00)

X-37B - Visible Passes

Search period start: 21 September 2021 00:00
Search period end: 01 October 2021 00:00
Orbit: 381 x 393 km, 45.0° (Epoch: 29 August)

Date Brightness Start Highest point End Pass type
(mag) Time Alt. Az. Time Alt. Az. Time Alt. Az.
21 Sep 2.2 02:45:58 24° SSE 02:46:30 25° SE 02:49:10 10° E visible
22 Sep 0.5 03:22:47 23° WSW 03:24:34 89° NNW 03:27:45 10° ENE visible
23 Sep 2.2 02:27:13 34° E 02:27:13 34° E 02:29:18 10° ENE visible
24 Sep 0.9 03:03:52 44° WNW 03:04:27 52° NNW 03:07:34 10° ENE visible
25 Sep 3.4 02:08:12 19° ENE 02:08:12 19° ENE 02:09:12 10° ENE visible
25 Sep 2.0 03:40:29 12° WNW 03:42:56 29° N 03:45:46 10° NE visible
26 Sep 1.8 02:44:46 34° N 02:44:46 34° N 02:47:22 10° NE visible
27 Sep 2.2 03:21:20 17° NW 03:22:58 26° N 03:25:43 10° ENE visible
28 Sep 2.9 02:25:37 22° NNE 02:25:37 22° NNE 02:27:14 10° NE visible
28 Sep 2.1 03:58:43 10° NW 04:01:34 30° N 04:04:26 10° ENE visible
29 Sep 2.2 03:02:12 23° NNW 03:03:01 26° N 03:05:46 10° ENE visible
30 Sep 3.8 02:06:32 14° NE 02:06:32 14° NE 02:07:11 10° ENE visible
30 Sep 1.7 03:38:49 12° NW 03:41:34 39° NNE 03:44:34 10° E visible
